This demonstration page uses our WeatherBlox Daily Observations layout. Learn more.

40.92945, -100.16068

Hourly Observations for March 12, 2017

Temp ( °F °C ) Dew Point ( °F °C ) Humidity (%) Winds ( mph kmh ) Pressure ( in mb ) Visibility ( mi km ) Precip ( " mm )
12:15 am 00:15 Clear 26 -3.5 23 -5.2 88 88 SE 5 7 30.48 1032 10 16.0934 0 0
12:35 am 00:35 Mostly Cloudy 26 -3.4 23 -5.1 88 88 SE 7 11 30.48 1032 10 16.0934 0 0
12:55 am 00:55 Cloudy 26 -3.4 23 -5 89 89 SSE 6 9 30.48 1032 10 16.0934 0 0
1:15 am 01:15 Cloudy 26 -3.3 24 -4.7 90 90 SSE 5 7 30.45 1031 10 16.0934 0 0
1:35 am 01:35 Cloudy 27 -2.8 24 -4.3 90 90 SSE 5 7 30.45 1031 10 16.0934 0 0
1:55 am 01:55 Cloudy 28 -2.1 26 -3.5 90 90 SSE 7 11 30.42 1030 10 16.0934 0 0
3:15 am 03:15 Cloudy 30 -1.2 27 -2.6 90 90 SSE 8 13 30.42 1030 10 16.0934 0 0
3:35 am 03:35 Cloudy 30 -1.1 28 -2.4 91 91 SSE 8 13 30.39 1029 10 16.0934 0 0
3:55 am 03:55 Cloudy 31 -0.4 29 -1.8 90 90 S 9 15 30.39 1029 10 16.0934 0 0
4:15 am 04:15 Cloudy 31 -0.3 29 -1.8 90 90 SSE 9 15 30.33 1027 10 16.0934 0 0
4:35 am 04:35 Cloudy 32 -0.1 29 -1.6 90 90 SSE 13 20 30.3 1026 10 16.0934 0 0
4:55 am 04:55 Cloudy 32 -0.1 29 -1.6 90 90 S 12 19 30.3 1026 10 16.0934 0 0
5:15 am 05:15 Cloudy 32 0 29 -1.5 90 90 S 12 19 30.3 1026 10 16.0934 0 0
5:35 am 05:35 Cloudy 32 0 29 -1.5 90 90 S 13 20 30.3 1026 10 16.0934 0 0
5:55 am 05:55 Cloudy 32 0 29 -1.7 88 88 S 10 17 30.3 1026 10 16.0934 0 0
6:15 am 06:15 Cloudy 32 0 29 -1.7 88 88 S 12 19 30.3 1026 10 16.0934 0 0
6:35 am 06:35 Cloudy 32 0 29 -1.9 87 87 S 10 17 30.27 1025 10 16.0934 0 0
6:55 am 06:55 Cloudy 32 0 28 -2 87 87 S 17 28 30.27 1025 10 16.0934 0 0
7:15 am 07:15 Cloudy 32 -0.2 28 -2.1 87 87 S 13 20 30.27 1025 10 16.0934 0 0
7:35 am 07:35 Cloudy 32 -0.2 28 -2.1 87 87 S 14 22 30.27 1025 10 16.0934 0 0
7:55 am 07:55 Cloudy 31 -0.3 28 -2.1 88 88 SSE 17 28 30.21 1023 10 16.0934 0 0
8:15 am 08:15 Cloudy 31 -0.5 28 -2.2 88 88 SSE 18 30 30.21 1023 10 16.0934 0 0
8:35 am 08:35 Cloudy 31 -0.5 28 -2 90 90 S 17 28 30.21 1023 10 16.0934 0 0
8:55 am 08:55 Cloudy 31 -0.3 28 -2 88 88 S 17 28 30.18 1022 10 16.0934 0 0
9:15 am 09:15 Cloudy 32 0 28 -2 87 87 S 23 37 30.15 1021 10 16.0934 0 0
9:35 am 09:35 Mostly Cloudy 32 0 28 -2 87 87 S 24 39 30.15 1021 10 16.0934 0 0
9:55 am 09:55 Mostly Cloudy 32 0.2 28 -2 85 85 S 21 33 30.15 1021 10 16.0934 0 0
10:15 am 10:15 Partly Cloudy 33 0.5 28 -2.1 83 83 S 23 37 30.15 1021 10 16.0934 0 0
10:35 am 10:35 Partly Cloudy 35 1.5 29 -1.8 79 79 S 20 31 30.12 1020 10 16.0934 0 0
10:55 am 10:55 Partly Cloudy 37 2.5 29 -1.6 75 75 S 25 41 30.09 1019 10 16.0934 0 0
11:15 am 11:15 Partly Cloudy 36 2.1 29 -1.8 76 76 S 24 39 30.09 1019 10 16.0934 0 0
11:35 am 11:35 Sunny 38 3.1 29 -1.8 71 71 S 28 44 30.06 1018 10 16.0934 0 0
11:55 am 11:55 Sunny 40 4.6 30 -1.3 66 66 S 28 44 30.03 1017 10 16.0934 0 0
12:15 pm 12:15 Sunny 42 5.7 30 -1.3 61 61 S 31 50 30 1016 10 16.0934 0 0
12:35 pm 12:35 Sunny 42 5.5 29 -1.7 60 60 S 28 44 29.97 1015 10 16.0934 0 0
12:55 pm 12:55 Partly Cloudy 43 6.3 29 -1.5 58 58 S 20 31 30.03 1017 10 16.0934 0 0
1:15 pm 13:15 Partly Cloudy 44 6.8 29 -1.6 55 55 SSW 23 37 29.97 1015 10 16.0934 0 0
1:35 pm 13:35 Sunny 43 6.1 29 -1.9 57 57 SSW 25 41 29.94 1014 10 16.0934 0 0
1:55 pm 13:55 Sunny 43 6.3 29 -1.9 56 56 SSW 25 41 29.94 1014 10 16.0934 0 0
2:15 pm 14:15 Sunny 44 6.5 29 -1.6 57 57 SSW 23 37 29.94 1014 10 16.0934 0 0
2:35 pm 14:35 Partly Cloudy 45 7.1 30 -1.3 56 56 SW 20 31 29.94 1014 10 16.0934 0 0
2:55 pm 14:55 Mostly Cloudy 47 8.3 30 -0.9 53 53 SW 18 30 29.94 1014 10 16.0934 0 0
3:15 pm 15:15 Partly Cloudy 49 9.6 30 -0.9 48 48 SSW 16 26 29.88 1012 10 16.0934 0 0
3:35 pm 15:35 Sunny 51 10.3 31 -0.8 46 46 SW 15 24 29.88 1012 10 16.0934 0 0
3:55 pm 15:55 Sunny 52 11.2 31 -0.5 45 45 SW 12 19 29.88 1012 10 16.0934 0 0
4:15 pm 16:15 Sunny 53 11.7 31 -0.4 44 44 W 13 20 29.91 1013 10 16.0934 0 0
4:35 pm 16:35 Partly Cloudy 54 12.3 31 -0.6 41 41 W 17 28 29.88 1012 10 16.0934 0 0
4:55 pm 16:55 Mostly Cloudy 52 11.1 33 0.8 49 49 NNW 32 52 29.94 1014 10 16.0934 0 0
5:15 pm 17:15 Cloudy 47 8.5 36 2.3 65 65 NNW 24 39 30 1016 10 16.0934 0 0
5:35 pm 17:35 Cloudy 48 8.7 36 2.1 64 64 NNW 22 35 29.97 1015 10 16.0934 0 0
5:55 pm 17:55 Cloudy 46 7.6 35 1.5 66 66 NNW 22 35 30 1016 10 16.0934 0 0
6:15 pm 18:15 Cloudy 46 7.5 36 2.1 69 69 NNW 17 28 30 1016 10 16.0934 0 0
6:35 pm 18:35 Partly Cloudy 47 8.1 36 2.2 67 67 NNW 14 22 30 1016 10 16.0934 0 0
6:55 pm 18:55 Sunny 46 8 35 1.4 63 63 NNW 21 33 30.03 1017 10 16.0934 0 0
7:15 pm 19:15 Partly Cloudy 45 7.3 34 1.3 66 66 NNW 15 24 30.03 1017 10 16.0934 0 0
7:35 pm 19:35 Partly Cloudy 44 6.8 34 1 67 67 N 10 17 30.03 1017 10 16.0934 0 0
7:55 pm 19:55 Partly Cloudy 43 6 32 0 66 66 N 14 22 30.06 1018 10 16.0934 0 0
8:15 pm 20:15 Clear 42 5.5 32 -0.2 67 67 NNW 14 22 30.06 1018 10 16.0934 0 0
8:35 pm 20:35 Clear 39 4.1 31 -0.6 72 72 N 8 13 30.09 1019 10 16.0934 0 0
8:55 pm 20:55 Clear 38 3.4 30 -0.9 74 74 N 10 17 30.12 1020 10 16.0934 0 0
9:15 pm 21:15 Clear 38 3.2 30 -1.3 73 73 N 18 30 30.12 1020 10 16.0934 0 0
9:35 pm 21:35 Clear 37 2.5 28 -2.2 71 71 N 21 33 30.12 1020 10 16.0934 0 0
9:55 pm 21:55 Clear 35 1.4 26 -3.1 72 72 NNW 17 28 30.15 1021 10 16.0934 0 0
10:15 pm 22:15 Clear 33 0.7 25 -4 71 71 NNW 26 43 30.18 1022 10 16.0934 0 0
10:35 pm 22:35 Clear 32 0 22 -5.5 67 67 NNW 24 39 30.21 1023 10 16.0934 0 0
10:55 pm 22:55 Partly Cloudy 30 -1 22 -5.6 71 71 NNW 15 24 30.21 1023 10 16.0934 0 0
11:15 pm 23:15 Partly Cloudy 30 -1 21 -6 69 69 NNW 21 33 30.24 1024 10 16.0934 0 0
11:35 pm 23:35 Clear 29 -1.7 19 -7 67 67 NNW 23 37 30.27 1025 10 16.0934 0 0
11:55 pm 23:55 Partly Cloudy 27 -2.6 19 -7.4 70 70 NNW 28 44 30.3 1026 10 16.0934 0 0

Powered by AerisWeather